Regional Weather Roundup
Issued by NWS Albany, NY

Home | Current Version | Previous Version | Text Only | Print | Product List | Glossary On
Versions: 1 2 3 4 5 6 7 8 9 10 11 12 13 14 15 16 17 18 19 20 21 22 23 24 25 26 27 28 29 30 31 32 33 34 35 36 37 38 39 40 41 42 43 44 45 46 47 48 49 50
943
ASUS41 KALY 290610
RWRALY

NEW YORK STATE HOURLY WEATHER ROUNDUP
NATIONAL WEATHER SERVICE ALBANY NY
200 AM EDT SUN MAY 29 2016

NOTE: "FAIR" INDICATES FEW OR NO CLOUDS BELOW 12,000 FEET WITH NO
SIGNIFICANT WEATHER AND/OR NO OBSTRUCTIONS TO VISIBILITY.

NYZ032-033-038>043-046>054-057>066-NYZ062>081-082-084-290700-
EAST


CITY           SKY/WX    TMP DP  RH WIND       PRES   REMARKS
ALBANY         CLEAR     76  65  68 CALM      30.10R
GLENS FALLS    CLEAR     67  64  90 CALM      30.10S FOG
POUGHKEEPSIE   CLEAR     72  67  84 CALM      30.10F
NEWBURGH       CLEAR     70  68  94 CALM      30.13F
MONTGOMERY     CLEAR     69  67  93 SW3       30.12S
WHITE PLAINS   PTCLDY    68  63  84 CALM      30.13S
ISLIP          CLEAR     67  55  65 SW7       30.14F
NEW YORK CITY  CLEAR     78  59  51 SW8       30.12S
CENTRAL PARK   CLEAR     76  56  49 VRB5      30.16R
$$

NYZ005>009-017-018-044>046-055-056-290700-
CENTRAL


CITY           SKY/WX    TMP DP  RH WIND       PRES   REMARKS
FULTON         CLOUDY    72  68  87 CALM      30.07F
SYRACUSE       CLOUDY    73  64  73 CALM      30.06F
ROME           PTCLDY    68  63  84 SE5       30.10S
ELMIRA         PTCLDY    67  64  90 W3        30.11S FOG
BINGHAMTON     CLOUDY    73  64  73 S5        30.14F
MONTICELLO     CLEAR     66  64  94 CALM      30.18F
$$

NYZ026>034-041>043-087-290700-
NORTH


CITY           SKY/WX    TMP DP  RH WIND       PRES   REMARKS
WATERTOWN      CLOUDY    64  61  90 E3        30.05F
FORT DRUM      NOT AVBL
MASSENA        CLEAR     65  59  81 NE5       30.07F
SARANAC LAKE   CLEAR     55  53  93 CALM      30.14S FOG
PLATTSBURGH    CLEAR     63  60  90 CALM      30.08S
$$

NYZ001>004-010>016-019>021-085-290700-
WEST


CITY           SKY/WX    TMP DP  RH WIND       PRES   REMARKS
NIAGARA FALLS  MOCLDY    71  65  81 SW5       30.06F
BUFFALO        CLOUDY    72  65  78 S7        30.07F
DUNKIRK        CLOUDY    73  64  73 SW7       30.08S
JAMESTOWN      CLOUDY    64  61  88 S5        30.14S
WELLSVILLE     PTCLDY    65  64  97 CALM      30.18S FOG
ROCHESTER      CLOUDY    75  66  73 CALM      30.06F
PENN YAN       PTCLDY    70  65  84 SW7       30.10F
$$

             KEY
       WCI = WIND CHILL INDEX
       VSB = VISIBILITY
       HX  = HEAT INDEX
$$




USA.gov is the U.S. government's official web portal to all federal, state and local government web resources and services.